{"data":{"norad_id":47373,"epoch":"2026-05-25T00:34:14.609280Z","epoch_age_seconds":72735,"freshness":"FRESH","line1":"1 47373U 21005AA  26145.02378020  .00005440  00000+0  18691-3 0  9992","line2":"2 47373  53.1606  67.4602 0001197  87.2002 272.9137 15.31704595294724","mean_motion":15.31704595,"eccentricity":0.0001197,"inclination_deg":53.1606,"raan_deg":67.4602,"arg_perigee_deg":87.2002,"mean_anomaly_deg":272.9137,"bstar":0.00018691,"rev_number":29472,"period_min":94.012905928509,"perigee_km":469.90648886725,"apogee_km":471.54610674074,"semimajor_km":6848.863297804,"source":"CELESTRAK","updated_at":"2026-05-25T13:38:16.526890Z"}}